Precipitable_Water
1.65 1.59 1.57 1.51 1.42 1.35 1.34 1.29 1.22 1.15 1.07 0.99 0.87 0.75 0.62 0.57 0.58 0.59 0.59 0.59 0.59 0.59 0.58 0.62 0.66 0.64 0.62 0.61 0.59 0.58 0.60 0.61 0.62 0.60 0.57 0.55 0.54 0.54 0.55 0.58 0.58 0.59 0.61 0.60 0.62 0.61 0.58 0.53 0.45 0.41 0.47 0.52 0.50 0.51 0.55 0.58 0.60 0.61 0.61 0.62 0.62 0.63 0.57 0.54 0.51 0.50 0.60 0.67 0.66 0.69 0.73 0.72 0.66 0.70 0.66 0.66 0.66 0.65 0.66 0.69 0.73 0.71 0.71 0.75 0.83
1.62 1.56 1.51 1.45 1.38 1.34 1.29 1.23 1.16 1.10 1.02 0.94 0.85 0.68 0.61 0.60 0.57 0.56 0.57 0.58 0.62 0.58 0.61 0.65 0.66 0.66 0.63 0.61 0.60 0.60 0.61 0.62 0.62 0.61 0.59 0.58 0.54 0.54 0.56 0.58 0.60 0.60 0.62 0.61 0.62 0.62 0.61 0.56 0.49 0.45 0.45 0.52 0.54 0.53 0.55 0.60 0.59 0.60 0.58 0.59 0.58 0.58 0.60 0.56 0.51 0.47 0.45 0.51 0.51 0.56 0.61 0.65 0.57 0.67 0.63 0.60 0.59 0.61 0.62 0.67 0.71 0.73 0.75 0.74 0.76
1.59 1.52 1.44 1.36 1.30 1.27 1.23 1.18 1.13 1.07 0.98 0.90 0.78 0.66 0.61 0.59 0.61 0.59 0.57 0.61 0.64 0.65 0.68 0.67 0.70 0.67 0.62 0.62 0.62 0.61 0.60 0.60 0.62 0.64 0.64 0.63 0.60 0.59 0.59 0.60 0.59 0.58 0.58 0.58 0.60 0.62 0.61 0.59 0.53 0.48 0.47 0.50 0.52 0.57 0.59 0.56 0.61 0.59 0.61 0.61 0.58 0.59 0.58 0.56 0.51 0.46 0.46 0.46 0.50 0.48 0.51 0.56 0.56 0.56 0.62 0.62 0.62 0.63 0.63 0.66 0.68 0.75 0.79 0.76 0.74
1.52 1.46 1.37 1.28 1.25 1.22 1.17 1.14 1.10 1.03 0.96 0.86 0.72 0.65 0.60 0.59 0.60 0.59 0.61 0.64 0.65 0.69 0.73 0.73 0.77 0.74 0.70 0.68 0.65 0.64 0.63 0.63 0.64 0.65 0.65 0.64 0.65 0.64 0.63 0.65 0.62 0.62 0.60 0.58 0.59 0.61 0.60 0.59 0.55 0.51 0.47 0.50 0.55 0.55 0.60 0.57 0.60 0.60 0.64 0.61 0.60 0.58 0.58 0.55 0.57 0.54 0.53 0.48 0.49 0.49 0.53 0.55 0.58 0.60 0.63 0.64 0.64 0.64 0.64 0.66 0.72 0.76 0.77 0.74 0.72
1.46 1.38 1.30 1.23 1.20 1.16 1.13 1.11 1.04 0.97 0.88 0.78 0.69 0.64 0.60 0.59 0.59 0.60 0.62 0.64 0.67 0.70 0.75 0.80 0.80 0.77 0.73 0.71 0.70 0.68 0.67 0.66 0.66 0.65 0.66 0.65 0.65 0.67 0.68 0.68 0.67 0.65 0.63 0.62 0.61 0.61 0.59 0.57 0.56 0.55 0.48 0.47 0.56 0.52 0.61 0.65 0.61 0.62 0.64 0.63 0.61 0.59 0.60 0.59 0.58 0.57 0.54 0.51 0.51 0.56 0.57 0.58 0.59 0.61 0.62 0.59 0.61 0.63 0.64 0.64 0.69 0.76 0.76 0.75 0.74
1.38 1.28 1.21 1.18 1.16 1.13 1.10 1.05 0.97 0.85 0.77 0.71 0.65 0.60 0.61 0.61 0.60 0.61 0.64 0.64 0.68 0.72 0.75 0.78 0.78 0.74 0.73 0.73 0.73 0.72 0.72 0.73 0.71 0.71 0.71 0.69 0.70 0.70 0.70 0.69 0.68 0.65 0.65 0.63 0.62 0.60 0.58 0.56 0.56 0.53 0.47 0.43 0.51 0.54 0.61 0.70 0.69 0.65 0.65 0.66 0.64 0.59 0.58 0.58 0.58 0.58 0.56 0.53 0.52 0.52 0.56 0.54 0.54 0.57 0.60 0.60 0.60 0.59 0.59 0.62 0.73 0.79 0.77 0.70 0.73
1.32 1.23 1.16 1.13 1.10 1.09 1.05 0.97 0.86 0.76 0.70 0.65 0.60 0.60 0.61 0.62 0.63 0.63 0.66 0.67 0.69 0.71 0.74 0.78 0.76 0.75 0.76 0.76 0.76 0.76 0.76 0.77 0.79 0.79 0.78 0.77 0.75 0.72 0.71 0.72 0.69 0.66 0.65 0.67 0.63 0.62 0.60 0.58 0.54 0.50 0.45 0.44 0.47 0.51 0.59 0.71 0.73 0.68 0.66 0.69 0.65 0.60 0.56 0.56 0.56 0.60 0.58 0.53 0.52 0.53 0.53 0.55 0.54 0.51 0.57 0.61 0.63 0.62 0.56 0.55 0.62 0.67 0.74 0.73 0.75
1.26 1.19 1.14 1.11 1.09 1.05 0.97 0.87 0.78 0.72 0.66 0.60 0.59 0.60 0.63 0.64 0.65 0.66 0.68 0.70 0.71 0.73 0.73 0.75 0.76 0.77 0.77 0.78 0.80 0.81 0.82 0.81 0.81 0.82 0.84 0.85 0.81 0.75 0.76 0.75 0.71 0.69 0.68 0.66 0.64 0.63 0.62 0.61 0.53 0.49 0.45 0.43 0.44 0.50 0.56 0.66 0.73 0.73 0.71 0.70 0.67 0.59 0.56 0.55 0.56 0.60 0.59 0.53 0.51 0.52 0.53 0.54 0.56 0.60 0.61 0.59 0.57 0.55 0.59 0.57 0.58 0.60 0.63 0.75 0.84
1.22 1.14 1.10 1.07 1.02 0.96 0.87 0.80 0.75 0.66 0.61 0.58 0.58 0.60 0.63 0.64 0.67 0.68 0.68 0.70 0.73 0.77 0.78 0.77 0.75 0.76 0.78 0.79 0.81 0.83 0.83 0.83 0.82 0.80 0.82 0.87 0.88 0.88 0.84 0.79 0.74 0.69 0.68 0.66 0.67 0.66 0.63 0.64 0.55 0.49 0.47 0.45 0.42 0.47 0.52 0.56 0.58 0.58 0.60 0.61 0.59 0.56 0.56 0.52 0.54 0.61 0.59 0.54 0.51 0.55 0.55 0.54 0.55 0.55 0.55 0.56 0.53 0.49 0.58 0.59 0.59 0.63 0.64 0.64 0.81
1.17 1.12 1.07 1.02 0.97 0.89 0.80 0.75 0.70 0.62 0.58 0.56 0.59 0.63 0.63 0.64 0.65 0.68 0.69 0.72 0.76 0.78 0.76 0.78 0.79 0.77 0.80 0.81 0.81 0.81 0.81 0.83 0.81 0.82 0.83 0.83 0.86 0.90 0.88 0.83 0.77 0.71 0.69 0.66 0.66 0.67 0.66 0.65 0.61 0.52 0.53 0.51 0.45 0.45 0.50 0.52 0.51 0.53 0.51 0.54 0.55 0.54 0.52 0.48 0.53 0.60 0.57 0.52 0.51 0.52 0.49 0.49 0.51 0.56 0.55 0.58 0.61 0.57 0.55 0.54 0.53 0.59 0.62 0.63 0.67
1.17 1.11 1.05 1.00 0.92 0.84 0.74 0.71 0.66 0.58 0.56 0.56 0.59 0.62 0.63 0.67 0.67 0.70 0.71 0.73 0.76 0.76 0.78 0.80 0.83 0.82 0.80 0.80 0.79 0.79 0.81 0.86 0.81 0.82 0.83 0.84 0.85 0.88 0.85 0.81 0.75 0.71 0.68 0.65 0.65 0.67 0.66 0.67 0.62 0.56 0.53 0.54 0.56 0.49 0.50 0.49 0.53 0.53 0.54 0.53 0.54 0.53 0.47 0.48 0.53 0.59 0.55 0.52 0.52 0.53 0.49 0.48 0.50 0.55 0.56 0.56 0.59 0.56 0.54 0.53 0.54 0.56 0.57 0.54 0.57
1.14 1.09 1.02 0.93 0.82 0.73 0.69 0.67 0.63 0.57 0.56 0.57 0.60 0.63 0.67 0.68 0.69 0.70 0.71 0.73 0.74 0.76 0.81 0.83 0.82 0.82 0.82 0.81 0.82 0.81 0.83 0.85 0.82 0.83 0.84 0.84 0.83 0.83 0.85 0.83 0.77 0.69 0.65 0.65 0.66 0.65 0.66 0.67 0.63 0.56 0.54 0.54 0.59 0.59 0.57 0.55 0.55 0.55 0.54 0.54 0.54 0.53 0.56 0.54 0.54 0.55 0.56 0.54 0.53 0.51 0.49 0.47 0.48 0.53 0.52 0.53 0.52 0.55 0.56 0.53 0.53 0.55 0.58 0.57 0.61
1.15 1.07 0.97 0.86 0.77 0.70 0.68 0.63 0.60 0.57 0.56 0.60 0.62 0.64 0.67 0.68 0.70 0.71 0.71 0.77 0.78 0.79 0.83 0.82 0.83 0.83 0.81 0.82 0.84 0.88 0.88 0.91 0.84 0.83 0.84 0.82 0.82 0.82 0.86 0.86 0.80 0.70 0.63 0.65 0.68 0.68 0.68 0.68 0.66 0.59 0.59 0.59 0.63 0.63 0.62 0.62 0.66 0.64 0.63 0.61 0.60 0.59 0.59 0.58 0.60 0.60 0.59 0.55 0.50 0.48 0.47 0.46 0.47 0.48 0.50 0.51 0.52 0.51 0.53 0.50 0.51 0.56 0.60 0.60 0.68
1.12 1.04 0.92 0.85 0.80 0.77 0.76 0.64 0.57 0.56 0.58 0.62 0.62 0.64 0.66 0.66 0.71 0.74 0.74 0.78 0.79 0.80 0.82 0.80 0.82 0.82 0.82 0.83 0.86 0.88 0.92 0.93 0.82 0.82 0.82 0.81 0.81 0.81 0.90 0.88 0.83 0.75 0.68 0.69 0.69 0.71 0.69 0.68 0.68 0.63 0.62 0.63 0.63 0.62 0.63 0.64 0.66 0.65 0.65 0.63 0.60 0.61 0.62 0.60 0.57 0.58 0.58 0.53 0.48 0.42 0.43 0.45 0.45 0.44 0.50 0.52 0.49 0.48 0.49 0.47 0.47 0.51 0.57 0.59 0.73
1.09 1.03 0.95 0.89 0.87 0.86 0.84 0.69 0.61 0.59 0.60 0.61 0.62 0.63 0.64 0.66 0.70 0.73 0.73 0.74 0.75 0.81 0.83 0.84 0.83 0.81 0.83 0.85 0.87 0.87 0.92 0.86 0.83 0.80 0.80 0.79 0.79 0.83 0.94 0.88 0.81 0.74 0.70 0.72 0.72 0.72 0.71 0.70 0.70 0.68 0.65 0.65 0.62 0.58 0.62 0.63 0.65 0.67 0.65 0.62 0.61 0.59 0.60 0.58 0.53 0.49 0.50 0.48 0.46 0.43 0.42 0.44 0.43 0.45 0.50 0.51 0.49 0.51 0.50 0.50 0.48 0.49 0.52 0.62 0.80
1.06 1.03 0.99 0.99 0.95 0.91 0.85 0.75 0.68 0.64 0.63 0.61 0.61 0.61 0.63 0.65 0.69 0.73 0.74 0.76 0.79 0.83 0.82 0.80 0.79 0.81 0.84 0.84 0.84 0.84 0.90 0.87 0.83 0.79 0.78 0.78 0.76 0.90 0.95 0.87 0.81 0.75 0.68 0.71 0.75 0.75 0.75 0.72 0.71 0.72 0.71 0.67 0.64 0.60 0.61 0.63 0.65 0.69 0.67 0.63 0.62 0.61 0.59 0.61 0.59 0.58 0.55 0.53 0.54 0.51 0.46 0.43 0.41 0.42 0.46 0.48 0.49 0.51 0.55 0.56 0.57 0.54 0.54 0.60 0.66
1.04 1.01 1.00 1.00 1.01 0.98 0.88 0.78 0.69 0.64 0.61 0.59 0.59 0.60 0.62 0.65 0.70 0.74 0.73 0.74 0.75 0.78 0.81 0.81 0.82 0.81 0.81 0.82 0.82 0.84 0.88 0.92 0.85 0.81 0.78 0.78 0.76 0.90 0.93 0.87 0.79 0.73 0.68 0.70 0.75 0.77 0.76 0.75 0.73 0.74 0.76 0.77 0.72 0.63 0.61 0.63 0.65 0.70 0.68 0.65 0.66 0.64 0.59 0.62 0.62 0.61 0.62 0.62 0.61 0.58 0.53 0.50 0.47 0.45 0.49 0.50 0.47 0.51 0.56 0.51 0.50 0.51 0.52 0.54 0.60
1.09 1.03 1.01 1.02 1.01 0.97 0.89 0.80 0.75 0.71 0.64 0.58 0.58 0.60 0.63 0.66 0.69 0.73 0.73 0.73 0.74 0.76 0.82 0.81 0.80 0.79 0.79 0.81 0.84 0.84 0.86 0.91 0.85 0.82 0.80 0.79 0.76 0.83 0.92 0.85 0.75 0.68 0.67 0.70 0.77 0.76 0.78 0.71 0.71 0.73 0.74 0.78 0.77 0.71 0.66 0.66 0.67 0.68 0.69 0.66 0.67 0.65 0.62 0.64 0.63 0.67 0.70 0.69 0.67 0.63 0.58 0.54 0.52 0.51 0.54 0.49 0.45 0.51 0.54 0.50 0.52 0.51 0.52 0.56 0.57
1.11 1.08 1.07 1.05 1.01 0.97 0.94 0.83 0.79 0.74 0.68 0.64 0.62 0.61 0.62 0.65 0.69 0.73 0.74 0.75 0.79 0.83 0.81 0.78 0.79 0.80 0.84 0.86 0.85 0.82 0.87 0.87 0.86 0.83 0.81 0.80 0.78 0.84 0.92 0.82 0.72 0.69 0.69 0.72 0.77 0.80 0.80 0.80 0.74 0.72 0.73 0.80 0.79 0.77 0.75 0.72 0.69 0.69 0.69 0.68 0.67 0.65 0.65 0.67 0.70 0.69 0.72 0.70 0.68 0.66 0.60 0.59 0.56 0.54 0.54 0.49 0.46 0.51 0.56 0.57 0.58 0.55 0.51 0.55 0.59
1.13 1.12 1.10 1.05 1.02 0.98 0.92 0.83 0.77 0.75 0.71 0.67 0.66 0.64 0.64 0.66 0.69 0.72 0.73 0.76 0.76 0.81 0.82 0.79 0.80 0.82 0.86 0.87 0.88 0.87 0.84 0.88 0.89 0.84 0.83 0.82 0.80 0.78 0.90 0.82 0.72 0.70 0.70 0.71 0.71 0.75 0.80 0.81 0.85 0.79 0.73 0.71 0.71 0.73 0.74 0.75 0.72 0.71 0.72 0.70 0.67 0.66 0.69 0.69 0.75 0.76 0.77 0.73 0.68 0.61 0.57 0.59 0.58 0.56 0.54 0.49 0.48 0.51 0.52 0.56 0.56 0.57 0.56 0.56 0.59
1.17 1.12 1.10 1.06 1.01 0.95 0.89 0.82 0.75 0.74 0.73 0.68 0.68 0.65 0.65 0.66 0.69 0.70 0.71 0.76 0.78 0.82 0.81 0.81 0.78 0.80 0.81 0.85 0.86 0.85 0.88 0.84 0.86 0.83 0.83 0.83 0.83 0.80 0.85 0.86 0.78 0.74 0.76 0.76 0.78 0.77 0.78 0.80 0.82 0.84 0.76 0.73 0.72 0.72 0.72 0.74 0.75 0.75 0.75 0.73 0.74 0.74 0.71 0.70 0.78 0.82 0.80 0.73 0.68 0.60 0.58 0.59 0.58 0.56 0.53 0.48 0.47 0.48 0.48 0.52 0.54 0.58 0.60 0.60 0.63
1.19 1.12 1.09 1.04 1.01 0.95 0.87 0.81 0.74 0.72 0.72 0.69 0.66 0.64 0.65 0.68 0.69 0.71 0.74 0.76 0.77 0.77 0.80 0.81 0.80 0.78 0.80 0.81 0.84 0.85 0.89 0.85 0.83 0.84 0.83 0.83 0.83 0.83 0.80 0.85 0.85 0.80 0.78 0.78 0.77 0.79 0.82 0.83 0.85 0.85 0.80 0.76 0.75 0.75 0.74 0.75 0.76 0.78 0.78 0.78 0.77 0.74 0.73 0.76 0.81 0.87 0.81 0.73 0.66 0.63 0.60 0.57 0.57 0.56 0.52 0.48 0.46 0.47 0.44 0.48 0.51 0.58 0.63 0.68 0.73
1.22 1.15 1.09 1.03 1.00 0.93 0.86 0.78 0.73 0.72 0.70 0.67 0.65 0.63 0.65 0.65 0.69 0.73 0.73 0.76 0.78 0.78 0.79 0.80 0.79 0.78 0.79 0.80 0.85 0.87 0.89 0.92 0.92 0.86 0.85 0.84 0.84 0.84 0.83 0.82 0.84 0.82 0.78 0.79 0.80 0.82 0.86 0.87 0.89 0.87 0.81 0.79 0.78 0.78 0.78 0.77 0.78 0.79 0.78 0.78 0.79 0.79 0.78 0.78 0.81 0.89 0.82 0.74 0.67 0.61 0.59 0.57 0.57 0.54 0.52 0.48 0.46 0.46 0.46 0.49 0.50 0.53 0.57 0.65 0.73
1.26 1.17 1.08 1.03 1.01 0.93 0.84 0.77 0.72 0.71 0.69 0.69 0.66 0.66 0.66 0.67 0.69 0.72 0.75 0.77 0.77 0.77 0.79 0.80 0.79 0.76 0.74 0.77 0.81 0.85 0.90 0.92 0.95 0.93 0.88 0.86 0.86 0.87 0.86 0.86 0.85 0.85 0.85 0.84 0.87 0.89 0.89 0.91 0.90 0.87 0.85 0.83 0.81 0.81 0.81 0.81 0.80 0.80 0.81 0.80 0.80 0.82 0.82 0.80 0.84 0.87 0.80 0.75 0.67 0.62 0.59 0.59 0.58 0.56 0.52 0.51 0.49 0.48 0.50 0.53 0.52 0.49 0.49 0.53 0.62
1.22 1.14 1.07 1.04 0.99 0.92 0.84 0.75 0.72 0.71 0.69 0.69 0.66 0.66 0.69 0.71 0.69 0.73 0.75 0.76 0.77 0.76 0.77 0.79 0.75 0.75 0.74 0.75 0.79 0.85 0.90 0.92 0.93 0.96 0.94 0.88 0.87 0.87 0.88 0.89 0.89 0.89 0.86 0.85 0.88 0.91 0.93 0.93 0.91 0.89 0.88 0.87 0.86 0.85 0.84 0.82 0.82 0.81 0.80 0.81 0.82 0.83 0.84 0.85 0.86 0.84 0.75 0.73 0.70 0.62 0.60 0.60 0.59 0.60 0.59 0.56 0.56 0.60 0.57 0.53 0.51 0.50 0.50 0.47 0.50
1.18 1.12 1.08 1.04 0.97 0.91 0.80 0.73 0.71 0.70 0.69 0.70 0.69 0.68 0.66 0.67 0.67 0.71 0.73 0.75 0.76 0.75 0.76 0.72 0.72 0.75 0.76 0.78 0.81 0.86 0.89 0.92 0.93 0.95 0.96 0.99 0.98 0.93 0.89 0.89 0.90 0.91 0.91 0.92 0.92 0.93 0.94 0.95 0.95 0.95 0.94 0.93 0.91 0.89 0.87 0.88 0.88 0.87 0.85 0.86 0.86 0.86 0.88 0.88 0.84 0.77 0.72 0.73 0.71 0.67 0.63 0.63 0.63 0.63 0.64 0.64 0.61 0.57 0.55 0.53 0.48 0.49 0.45 0.41 0.40
1.17 1.12 1.07 1.03 0.96 0.86 0.75 0.70 0.68 0.69 0.68 0.69 0.70 0.69 0.68 0.67 0.67 0.68 0.70 0.73 0.74 0.75 0.74 0.72 0.74 0.77 0.77 0.82 0.86 0.89 0.91 0.92 0.94 0.95 0.96 0.96 0.98 1.01 1.05 1.02 0.98 0.94 0.93 0.94 0.95 0.95 0.96 0.98 1.00 0.99 0.98 0.98 0.97 0.96 0.95 0.96 0.94 0.93 0.96 0.96 0.98 0.95 0.91 0.87 0.84 0.80 0.77 0.74 0.74 0.72 0.68 0.66 0.67 0.67 0.63 0.60 0.58 0.58 0.58 0.53 0.50 0.47 0.41 0.43 0.39
1.12 1.08 1.04 0.97 0.86 0.78 0.69 0.62 0.62 0.64 0.66 0.67 0.66 0.65 0.68 0.69 0.67 0.68 0.70 0.73 0.74 0.75 0.75 0.75 0.79 0.79 0.82 0.86 0.88 0.88 0.89 0.94 0.96 0.98 1.01 1.02 1.01 1.00 0.98 0.98 1.00 1.02 1.03 1.07 1.09 1.12 1.11 1.10 1.08 1.08 1.07 1.05 1.05 1.05 1.06 1.07 1.04 1.03 1.01 0.99 0.94 0.92 0.90 0.87 0.84 0.83 0.81 0.79 0.79 0.78 0.73 0.69 0.65 0.61 0.62 0.60 0.57 0.57 0.58 0.55 0.51 0.46 0.43 0.44 0.42
1.09 1.04 0.96 0.81 0.72 0.68 0.63 0.63 0.63 0.62 0.64 0.65 0.69 0.71 0.70 0.70 0.71 0.75 0.82 0.84 0.81 0.80 0.81 0.83 0.84 0.87 0.88 0.86 0.85 0.86 0.87 0.88 0.95 1.01 0.96 0.92 0.90 0.89 0.91 0.94 0.97 1.01 1.04 1.00 0.97 0.94 0.91 0.91 0.94 0.97 1.01 1.03 1.04 1.03 1.04 1.00 0.95 0.97 0.99 1.00 0.98 0.95 0.92 0.91 0.86 0.85 0.85 0.83 0.80 0.76 0.72 0.69 0.65 0.64 0.63 0.61 0.58 0.57 0.59 0.57 0.52 0.47 0.46 0.46 0.46
1.02 0.89 0.80 0.72 0.68 0.61 0.60 0.62 0.64 0.63 0.64 0.66 0.66 0.67 0.75 0.81 0.84 0.82 0.84 0.84 0.83 0.84 0.82 0.79 0.83 0.86 0.83 0.86 0.88 0.84 0.83 0.88 0.92 0.89 0.89 0.89 0.90 0.91 0.92 0.92 0.93 0.96 0.98 0.99 0.99 0.94 0.92 0.89 0.90 0.91 0.94 0.96 0.96 0.95 0.94 0.93 0.92 0.92 0.92 0.92 0.92 0.92 0.91 0.88 0.87 0.86 0.87 0.85 0.83 0.78 0.74 0.69 0.65 0.65 0.61 0.57 0.57 0.58 0.58 0.54 0.54 0.54 0.46 0.45 0.42
0.86 0.76 0.72 0.66 0.63 0.63 0.60 0.62 0.65 0.65 0.67 0.67 0.66 0.66 0.69 0.75 0.73 0.72 0.75 0.80 0.83 0.84 0.85 0.85 0.84 0.85 0.84 0.81 0.84 0.86 0.85 0.84 0.83 0.83 0.83 0.85 0.88 0.90 0.92 0.93 0.95 0.96 0.98 0.97 0.96 0.94 0.92 0.92 0.94 0.96 0.98 0.98 0.96 0.95 0.96 0.94 0.92 0.92 0.92 0.92 0.92 0.93 0.93 0.91 0.89 0.88 0.86 0.85 0.85 0.82 0.76 0.71 0.67 0.65 0.61 0.59 0.57 0.57 0.55 0.56 0.55 0.53 0.49 0.41 0.38
0.71 0.69 0.67 0.64 0.62 0.62 0.65 0.65 0.64 0.64 0.66 0.67 0.67 0.68 0.72 0.76 0.82 0.80 0.79 0.80 0.81 0.82 0.83 0.85 0.86 0.86 0.86 0.84 0.81 0.80 0.81 0.81 0.81 0.81 0.82 0.84 0.86 0.88 0.90 0.92 0.95 0.96 0.97 0.97 0.91 0.90 0.92 0.91 0.92 0.94 0.96 0.97 0.97 0.97 0.97 0.97 0.95 0.93 0.94 0.91 0.89 0.89 0.88 0.89 0.93 0.90 0.86 0.85 0.84 0.83 0.80 0.76 0.71 0.68 0.64 0.62 0.59 0.56 0.55 0.54 0.53 0.51 0.47 0.43 0.39
0.66 0.65 0.64 0.63 0.64 0.60 0.64 0.64 0.63 0.64 0.64 0.64 0.67 0.75 0.77 0.76 0.79 0.84 0.93 0.90 0.88 0.88 0.87 0.87 0.86 0.84 0.82 0.79 0.79 0.77 0.77 0.79 0.82 0.84 0.86 0.86 0.87 0.87 0.88 0.89 0.91 0.93 0.94 0.91 0.89 0.90 0.92 0.92 0.93 0.95 0.95 0.95 0.97 0.99 1.00 1.00 1.00 0.97 0.94 0.93 0.92 0.91 0.91 0.92 0.93 0.89 0.87 0.87 0.85 0.84 0.84 0.81 0.77 0.72 0.67 0.62 0.57 0.55 0.56 0.52 0.51 0.51 0.49 0.44 0.43
0.66 0.65 0.63 0.62 0.63 0.63 0.63 0.64 0.64 0.64 0.66 0.68 0.74 0.77 0.76 0.82 0.83 0.83 0.85 0.91 0.96 0.96 0.94 0.89 0.84 0.81 0.79 0.77 0.76 0.77 0.80 0.83 0.86 0.88 0.89 0.90 0.91 0.92 0.93 0.94 0.95 0.95 0.94 0.91 0.92 0.92 0.94 0.94 0.95 0.96 0.98 0.99 1.00 1.00 1.00 1.00 1.01 1.00 0.99 0.97 0.95 0.95 0.95 0.96 0.95 0.92 0.90 0.89 0.86 0.84 0.84 0.84 0.81 0.76 0.71 0.65 0.61 0.59 0.57 0.53 0.51 0.49 0.49 0.48 0.43
0.67 0.67 0.64 0.63 0.63 0.64 0.65 0.67 0.66 0.66 0.67 0.72 0.76 0.76 0.80 0.82 0.84 0.86 0.85 0.84 0.82 0.79 0.78 0.82 0.87 0.86 0.83 0.82 0.82 0.84 0.85 0.86 0.88 0.89 0.91 0.94 0.95 0.96 0.96 0.94 0.92 0.93 0.94 0.94 0.95 0.95 0.95 0.95 0.96 0.98 1.00 1.01 1.03 1.02 1.01 1.01 1.00 0.99 1.01 1.00 0.99 0.98 0.97 0.98 0.96 0.95 0.92 0.89 0.88 0.88 0.88 0.87 0.86 0.82 0.75 0.69 0.63 0.58 0.57 0.55 0.52 0.49 0.48 0.48 0.47
0.68 0.68 0.65 0.61 0.62 0.65 0.66 0.68 0.70 0.69 0.69 0.74 0.76 0.83 0.85 0.86 0.84 0.84 0.82 0.80 0.78 0.75 0.76 0.81 0.86 0.91 0.90 0.88 0.89 0.89 0.90 0.91 0.93 0.95 0.96 0.98 0.99 1.00 0.94 0.93 0.94 0.98 1.00 1.03 1.02 1.02 1.03 1.02 1.01 1.01 1.03 1.03 1.05 1.04 1.04 1.02 1.01 1.01 1.01 1.00 0.98 0.98 0.98 0.98 1.00 0.99 0.95 0.89 0.88 0.91 0.90 0.89 0.87 0.85 0.82 0.76 0.70 0.62 0.57 0.56 0.52 0.49 0.48 0.47 0.46
0.70 0.68 0.68 0.66 0.63 0.64 0.67 0.70 0.72 0.74 0.75 0.79 0.82 0.85 0.84 0.84 0.82 0.79 0.77 0.76 0.77 0.80 0.83 0.86 0.87 0.90 0.94 0.96 0.98 0.98 0.99 0.99 0.99 1.00 1.00 1.00 1.01 1.01 0.98 0.98 0.97 0.99 0.99 1.01 1.04 1.07 1.09 1.11 1.12 1.09 1.07 1.05 1.06 1.07 1.07 1.06 1.06 1.04 1.03 1.01 1.00 0.98 0.97 0.98 0.98 0.98 0.97 0.93 0.91 0.93 0.92 0.91 0.89 0.88 0.86 0.79 0.74 0.70 0.62 0.58 0.55 0.50 0.46 0.45 0.45
0.71 0.69 0.69 0.70 0.67 0.66 0.67 0.69 0.73 0.76 0.78 0.80 0.81 0.81 0.80 0.78 0.76 0.75 0.77 0.80 0.83 0.82 0.83 0.83 0.83 0.83 0.85 0.91 1.00 1.02 1.06 1.06 1.03 1.00 1.01 1.00 1.00 0.99 1.00 1.00 1.02 1.02 1.02 1.04 1.07 1.08 1.10 1.13 1.17 1.19 1.20 1.19 1.15 1.13 1.11 1.10 1.10 1.07 1.05 1.04 1.04 1.03 1.00 0.97 0.97 0.97 0.97 0.95 0.91 0.94 0.96 0.95 0.94 0.91 0.89 0.85 0.80 0.75 0.70 0.62 0.55 0.51 0.49 0.47 0.45
0.73 0.68 0.67 0.67 0.68 0.70 0.69 0.68 0.72 0.73 0.74 0.75 0.77 0.77 0.75 0.75 0.77 0.82 0.84 0.85 0.85 0.84 0.84 0.85 0.86 0.87 0.90 0.95 0.97 1.03 1.06 1.05 1.07 1.06 1.08 1.10 1.10 1.09 1.06 1.05 1.06 1.06 1.09 1.10 1.11 1.12 1.13 1.14 1.17 1.19 1.22 1.24 1.24 1.22 1.20 1.17 1.15 1.11 1.08 1.06 1.06 1.06 1.05 1.00 0.97 0.99 0.97 0.95 0.94 0.94 0.94 0.96 0.97 0.96 0.93 0.89 0.86 0.82 0.77 0.71 0.63 0.55 0.47 0.45 0.47
0.74 0.69 0.64 0.62 0.63 0.63 0.70 0.73 0.75 0.76 0.76 0.76 0.76 0.76 0.77 0.83 0.87 0.87 0.87 0.85 0.83 0.83 0.83 0.84 0.85 0.88 0.94 0.97 0.98 0.99 0.95 0.95 0.97 0.99 1.01 1.03 1.06 1.11 1.18 1.19 1.18 1.15 1.15 1.17 1.18 1.19 1.19 1.20 1.22 1.23 1.26 1.29 1.29 1.30 1.27 1.24 1.23 1.19 1.16 1.11 1.06 1.05 1.06 1.06 1.03 1.00 1.00 0.99 0.97 0.96 0.96 0.95 0.97 0.97 0.96 0.93 0.90 0.87 0.83 0.79 0.74 0.63 0.53 0.47 0.46
0.76 0.69 0.68 0.60 0.59 0.63 0.64 0.68 0.73 0.74 0.75 0.73 0.73 0.77 0.83 0.84 0.85 0.88 0.88 0.87 0.87 0.86 0.86 0.87 0.90 0.95 0.98 0.99 0.99 0.99 0.98 0.98 1.01 1.03 1.06 1.08 1.11 1.14 1.15 1.18 1.20 1.23 1.27 1.28 1.28 1.27 1.26 1.24 1.23 1.24 1.24 1.27 1.30 1.27 1.28 1.29 1.30 1.28 1.22 1.18 1.14 1.09 1.07 1.07 1.07 1.03 1.02 1.02 1.01 0.98 0.98 0.98 0.97 0.96 0.94 0.95 0.95 0.91 0.87 0.84 0.82 0.76 0.64 0.52 0.45
0.76 0.68 0.66 0.64 0.57 0.61 0.67 0.67 0.68 0.70 0.71 0.74 0.78 0.80 0.82 0.87 0.92 0.93 0.91 0.90 0.88 0.88 0.88 0.91 0.93 0.96 0.99 1.01 1.03 1.05 1.06 1.07 1.09 1.09 1.11 1.14 1.16 1.19 1.22 1.25 1.29 1.29 1.29 1.29 1.29 1.30 1.31 1.31 1.29 1.25 1.24 1.28 1.31 1.30 1.28 1.30 1.29 1.29 1.27 1.23 1.19 1.15 1.11 1.08 1.07 1.07 1.03 1.00 1.01 1.01 1.00 1.00 1.00 0.99 0.96 0.96 0.95 0.95 0.92 0.86 0.84 0.82 0.76 0.64 0.53
0.75 0.68 0.66 0.66 0.65 0.61 0.62 0.68 0.71 0.72 0.75 0.79 0.84 0.89 0.89 0.91 0.92 0.93 0.91 0.92 0.91 0.91 0.91 0.92 0.95 1.00 1.03 1.07 1.09 1.11 1.12 1.13 1.14 1.16 1.18 1.20 1.22 1.24 1.26 1.28 1.30 1.32 1.33 1.34 1.37 1.38 1.37 1.35 1.33 1.31 1.29 1.29 1.31 1.31 1.29 1.28 1.29 1.29 1.28 1.26 1.24 1.20 1.16 1.14 1.11 1.12 1.12 1.06 1.01 1.02 1.03 1.02 1.01 1.00 0.99 0.97 0.96 0.95 0.94 0.91 0.87 0.85 0.82 0.76 0.64
0.72 0.67 0.65 0.65 0.68 0.69 0.70 0.71 0.71 0.75 0.81 0.87 0.88 0.89 0.89 0.88 0.88 0.88 0.91 0.94 0.95 0.96 0.97 0.99 1.03 1.07 1.10 1.13 1.16 1.18 1.20 1.23 1.25 1.27 1.28 1.28 1.28 1.29 1.30 1.31 1.31 1.32 1.33 1.34 1.36 1.37 1.37 1.38 1.36 1.36 1.36 1.35 1.36 1.35 1.36 1.34 1.34 1.34 1.34 1.30 1.25 1.22 1.22 1.18 1.14 1.12 1.14 1.14 1.10 1.06 1.07 1.06 1.03 1.03 1.02 0.99 0.99 0.96 0.94 0.94 0.91 0.88 0.84 0.81 0.76
0.68 0.66 0.64 0.63 0.64 0.67 0.69 0.71 0.74 0.81 0.85 0.84 0.85 0.87 0.90 0.92 0.95 0.97 0.98 0.98 0.99 1.01 1.04 1.08 1.11 1.11 1.12 1.14 1.18 1.20 1.22 1.24 1.24 1.25 1.25 1.27 1.28 1.30 1.32 1.33 1.35 1.36 1.36 1.36 1.38 1.39 1.40 1.38 1.37 1.36 1.35 1.37 1.39 1.38 1.37 1.39 1.36 1.36 1.35 1.33 1.32 1.29 1.26 1.23 1.21 1.22 1.23 1.20 1.16 1.10 1.08 1.12 1.14 1.11 1.05 1.02 1.01 0.98 0.95 0.95 0.95 0.92 0.88 0.84 0.80
0.66 0.65 0.64 0.65 0.67 0.69 0.71 0.78 0.83 0.88 0.91 0.90 0.89 0.89 0.92 0.94 0.97 0.99 1.01 1.02 1.04 1.07 1.10 1.11 1.12 1.14 1.16 1.19 1.21 1.22 1.23 1.23 1.22 1.22 1.22 1.24 1.27 1.30 1.33 1.36 1.39 1.41 1.41 1.41 1.42 1.41 1.42 1.42 1.40 1.38 1.34 1.33 1.36 1.40 1.43 1.40 1.37 1.35 1.34 1.33 1.33 1.32 1.31 1.28 1.26 1.24 1.22 1.23 1.22 1.19 1.16 1.09 1.08 1.14 1.15 1.08 1.05 1.03 0.99 0.97 0.98 0.96 0.92 0.89 0.85
0.67 0.68 0.69 0.71 0.73 0.78 0.82 0.86 0.89 0.91 0.92 0.91 0.92 0.94 0.95 0.96 1.00 1.02 1.03 1.07 1.10 1.12 1.13 1.16 1.18 1.19 1.20 1.21 1.21 1.21 1.22 1.22 1.22 1.23 1.25 1.29 1.32 1.35 1.34 1.39 1.42 1.42 1.44 1.43 1.42 1.41 1.40 1.38 1.39 1.39 1.38 1.33 1.37 1.37 1.39 1.38 1.39 1.37 1.38 1.39 1.40 1.38 1.37 1.36 1.32 1.25 1.22 1.23 1.26 1.25 1.23 1.18 1.12 1.09 1.11 1.14 1.11 1.08 1.05 1.00 0.98 0.97 0.97 0.93 0.90
0.75 0.74 0.75 0.77 0.80 0.81 0.84 0.86 0.86 0.87 0.87 0.88 0.90 0.93 0.97 1.01 1.04 1.07 1.11 1.15 1.17 1.19 1.20 1.21 1.23 1.23 1.23 1.23 1.25 1.25 1.26 1.27 1.28 1.29 1.32 1.32 1.30 1.28 1.29 1.30 1.32 1.31 1.34 1.34 1.34 1.38 1.41 1.36 1.37 1.39 1.38 1.36 1.35 1.34 1.35 1.33 1.33 1.34 1.37 1.38 1.38 1.37 1.38 1.37 1.37 1.33 1.29 1.26 1.26 1.27 1.25 1.23 1.21 1.17 1.12 1.08 1.10 1.12 1.09 1.05 1.02 1.00 1.00 0.98 0.94
0.84 0.83 0.84 0.84 0.82 0.83 0.84 0.85 0.86 0.87 0.91 0.95 0.99 1.02 1.05 1.08 1.11 1.16 1.19 1.20 1.21 1.26 1.24 1.24 1.25 1.31 1.28 1.27 1.28 1.28 1.29 1.29 1.29 1.30 1.34 1.33 1.29 1.29 1.31 1.29 1.30 1.31 1.29 1.27 1.32 1.40 1.40 1.35 1.36 1.36 1.33 1.33 1.34 1.32 1.31 1.30 1.30 1.31 1.32 1.33 1.35 1.35 1.35 1.36 1.36 1.34 1.34 1.28 1.26 1.23 1.22 1.22 1.21 1.20 1.18 1.14 1.09 1.08 1.09 1.08 1.04 1.02 1.02 1.02 1.00
0.89 0.89 0.87 0.87 0.86 0.86 0.88 0.91 0.95 0.98 1.01 1.03 1.04 1.07 1.12 1.15 1.18 1.20 1.24 1.27 1.24 1.23 1.24 1.28 1.30 1.25 1.29 1.28 1.28 1.26 1.28 1.29 1.26 1.29 1.33 1.34 1.31 1.29 1.28 1.26 1.24 1.22 1.20 1.19 1.21 1.22 1.25 1.28 1.27 1.25 1.22 1.21 1.20 1.19 1.20 1.21 1.22 1.22 1.22 1.22 1.24 1.27 1.28 1.29 1.29 1.29 1.28 1.29 1.29 1.26 1.22 1.20 1.19 1.20 1.20 1.19 1.16 1.12 1.08 1.06 1.07 1.05 1.03 1.02 1.02
0.92 0.92 0.92 0.93 0.95 0.99 1.02 1.03 1.04 1.07 1.10 1.12 1.13 1.16 1.19 1.25 1.23 1.25 1.25 1.20 1.21 1.24 1.26 1.27 1.27 1.30 1.29 1.29 1.28 1.29 1.28 1.30 1.30 1.28 1.25 1.22 1.22 1.19 1.16 1.12 1.10 1.09 1.07 1.04 1.02 1.02 1.02 1.01 1.02 1.04 1.05 1.05 1.05 1.08 1.12 1.15 1.17 1.14 1.14 1.12 1.08 1.06 1.06 1.07 1.09 1.12 1.14 1.16 1.21 1.25 1.23 1.21 1.20 1.19 1.18 1.18 1.19 1.16 1.13 1.10 1.08 1.07 1.05 1.03 1.03
Wind_Speed
8 8 8 8 8 9 8 8 8 7 7 7 7 6 6 6 5 5 5 5 5 5 6 7 7 8 8 8 9 9 9 10 10 11 11 11 11 12 12 12 13 12 13 13 13 13 14 14 14 13 13 13 12 12 12 12 12 12 12 12 12 13 14 15 15 16 16 16 16 16 16 17 17 17 17 18 18 19 19 19 20 20 21 22 22
8 8 8 8 8 8 8 8 7 7 6 7 6 6 6 5 5 5 5 5 5 5 6 7 7 7 8 8 9 9 10 10 10 11 11 11 12 12 12 13 12 12 12 12 13 13 13 14 14 14 13 13 13 12 12 12 12 12 12 13 13 13 14 15 15 16 17 17 17 17 17 17 17 17 17 18 18 18 18 19 19 20 21 22 23
8 8 8 8 8 8 8 7 7 6 6 6 6 5 5 5 5 5 5 5 5 5 6 6 7 7 8 8 9 9 10 10 11 11 11 12 12 12 12 12 12 12 12 13 13 13 14 14 14 14 13 13 13 13 12 12 12 13 13 13 14 14 14 15 15 16 17 17 17 17 17 17 17 18 18 18 18 18 17 18 18 19 20 21 22
8 8 8 8 7 7 7 7 6 6 6 6 5 5 5 5 5 5 5 5 5 5 6 6 7 7 8 8 9 9 10 10 11 11 12 12 12 12 12 12 12 12 12 13 13 13 14 14 14 14 14 13 13 13 13 13 13 13 13 14 14 14 15 15 15 16 16 17 16 16 16 17 17 17 18 18 18 17 17 17 17 18 19 20 21
7 7 7 7 7 7 7 6 6 6 6 6 6 6 6 6 5 5 5 5 5 6 6 7 7 7 8 8 9 9 10 10 11 12 12 12 12 11 11 12 12 12 13 13 13 13 13 14 14 14 14 13 13 13 13 13 13 13 14 14 14 15 15 15 16 16 16 16 16 15 16 16 17 17 17 17 17 17 17 16 16 17 18 19 20
7 7 7 7 7 7 6 6 6 6 6 7 6 6 6 6 6 6 6 6 6 6 7 7 8 8 8 9 9 10 10 11 11 12 12 11 11 11 11 12 12 13 13 13 13 13 13 14 14 14 14 14 13 13 14 14 13 13 14 14 15 15 16 16 15 16 15 15 15 15 15 16 16 16 16 17 17 17 17 16 16 16 17 18 19
7 7 7 7 7 6 6 7 7 7 7 7 7 7 7 7 6 6 6 6 7 7 7 7 8 8 8 9 9 10 10 11 11 11 11 11 11 11 11 12 13 13 13 13 13 13 14 14 14 15 15 14 13 13 14 14 14 14 14 14 15 15 16 16 15 15 15 15 15 15 15 15 16 16 16 16 17 17 17 16 15 15 16 17 18
7 7 7 7 7 7 7 7 7 7 7 7 7 7 7 7 7 7 7 7 7 7 8 8 8 8 9 9 9 10 11 11 11 11 11 11 11 11 11 12 12 13 13 13 13 13 14 14 15 15 15 14 14 13 13 13 14 14 14 15 15 16 16 15 15 15 15 15 14 15 15 15 15 16 16 17 16 16 16 16 16 15 16 17 17
6 7 7 7 7 6 6 7 7 7 7 7 7 7 7 7 7 7 7 7 7 7 8 8 8 8 9 9 9 10 10 10 10 10 11 11 11 11 11 12 12 13 13 14 13 13 13 14 15 15 15 14 14 13 13 13 14 14 15 15 16 16 15 15 14 14 14 14 14 14 15 15 15 16 17 17 17 16 16 16 16 15 15 16 17
6 6 7 7 7 6 6 6 7 6 6 6 6 7 7 7 7 7 7 7 7 7 7 8 8 8 9 9 9 10 9 9 10 10 10 11 11 11 11 12 12 12 13 13 13 13 13 14 14 15 15 14 14 13 13 13 14 14 15 15 16 16 15 14 14 14 14 14 14 14 14 15 16 16 17 17 17 17 16 16 16 15 15 15 15
6 6 6 6 6 6 6 6 6 6 6 6 6 7 7 7 7 7 7 7 7 7 7 7 8 8 9 9 9 9 9 9 9 10 10 11 11 11 11 12 12 12 13 13 13 13 13 14 14 14 15 14 13 13 13 13 14 15 15 15 15 15 14 13 13 13 13 13 13 14 15 15 16 17 17 17 17 17 16 16 15 15 15 15 15
5 5 6 6 6 6 7 6 6 6 6 6 6 6 7 7 6 6 6 6 7 7 7 7 7 8 8 8 8 8 8 9 9 10 11 11 12 11 11 12 12 12 12 13 13 13 13 13 13 13 14 14 13 13 13 14 14 15 15 15 14 13 13 12 12 12 12 13 14 14 15 16 17 17 17 17 17 17 16 15 15 15 14 14 15
5 5 5 5 6 6 6 6 6 6 6 6 6 6 7 6 6 6 6 6 7 7 7 7 7 8 7 7 7 8 8 9 9 10 11 11 12 12 11 11 12 12 12 13 13 13 13 13 13 13 13 14 13 13 13 14 14 15 15 15 14 13 12 11 11 11 12 13 14 15 16 16 17 17 18 18 17 17 16 15 15 14 14 14 15
5 4 4 4 5 6 6 6 6 6 6 6 7 7 7 6 6 6 6 6 7 7 7 7 8 7 7 7 7 7 8 9 9 10 11 11 12 12 11 11 11 11 12 12 12 13 13 13 12 12 13 13 13 13 14 14 14 14 14 15 14 13 12 11 11 12 13 13 15 16 16 16 17 17 17 17 17 17 16 15 15 14 14 14 14
5 4 4 4 5 5 6 6 6 6 6 7 7 7 7 7 6 6 6 7 7 7 7 7 7 7 6 6 7 7 8 9 9 10 10 11 11 11 11 11 11 10 11 12 12 13 13 13 12 12 12 13 13 14 14 14 14 14 14 14 14 13 12 12 12 13 13 14 15 16 16 16 16 17 17 17 17 16 16 15 14 14 14 14 13
5 5 5 5 5 5 5 6 6 6 7 7 7 7 7 7 6 6 6 7 7 7 7 7 7 6 6 7 7 8 8 9 9 10 10 11 11 11 11 11 10 10 11 11 12 12 12 12 12 12 12 12 13 13 14 14 14 14 14 14 14 14 13 13 13 13 14 14 15 16 16 17 17 17 17 17 17 16 15 15 13 12 12 13 12
6 6 6 5 5 5 5 5 6 6 7 7 7 7 7 7 7 6 7 7 7 7 7 7 6 6 6 7 7 8 9 9 9 10 11 11 11 11 10 10 10 10 11 11 11 12 12 12 12 12 12 12 12 13 13 14 14 14 14 14 14 14 14 14 13 13 14 15 15 15 16 17 17 18 18 17 17 16 15 14 13 11 11 12 12
7 7 6 6 5 5 5 6 6 6 6 7 7 7 7 7 7 7 7 7 7 7 7 6 6 6 6 7 8 8 9 9 10 10 10 10 10 10 10 10 10 10 10 11 11 11 11 11 12 12 12 12 12 12 13 14 14 14 14 14 14 14 15 15 15 15 15 16 16 15 16 17 18 18 18 17 17 15 14 13 12 11 11 11 12
6 7 6 6 6 5 6 6 6 7 7 7 7 7 7 7 7 7 7 7 7 7 6 6 6 6 6 7 8 9 9 10 10 10 10 10 10 10 10 10 10 10 10 11 11 11 11 11 11 12 12 12 12 13 13 13 14 14 14 14 14 15 15 15 16 16 16 16 16 16 16 17 18 18 17 17 16 14 13 12 12 11 11 11 12
6 6 6 6 6 6 6 6 7 7 7 7 7 7 7 7 7 7 7 7 7 6 6 6 6 6 7 7 8 9 9 10 10 10 10 10 9 10 10 10 10 10 10 11 11 11 11 11 11 12 12 13 13 13 13 13 14 14 14 14 14 15 15 16 16 16 16 16 17 17 16 17 17 17 17 16 15 14 12 12 11 11 10 11 12
7 6 6 6 7 7 7 7 7 7 7 7 7 7 7 7 7 7 7 7 7 7 6 6 6 7 7 8 8 9 10 10 10 10 10 10 9 9 10 10 10 10 11 11 11 12 12 12 12 12 12 13 13 13 14 14 14 14 14 14 14 15 15 16 16 16 16 16 17 18 17 17 17 17 17 16 14 13 12 12 11 11 11 11 11
7 6 6 7 7 7 7 7 7 7 7 7 7 7 7 8 8 8 7 7 7 7 7 7 7 7 8 8 9 9 10 10 10 10 10 10 10 10 10 10 10 11 11 11 12 12 12 12 12 12 12 13 13 13 14 14 14 14 15 15 15 15 16 16 16 15 16 17 18 18 18 18 18 17 17 16 15 14 13 12 11 11 11 11 11
7 7 7 7 7 7 7 7 7 7 7 6 7 7 7 8 8 7 7 7 7 7 7 7 7 8 8 8 9 9 10 10 11 11 10 10 10 10 10 11 11 11 12 12 12 12 12 13 13 13 13 13 13 14 14 14 14 15 15 15 16 16 16 15 15 15 16 16 17 18 18 19 18 18 17 16 15 14 13 12 12 11 11 11 11
8 7 7 7 7 7 7 7 7 7 7 6 6 7 7 7 7 7 8 8 8 7 7 7 8 8 8 9 9 10 10 11 11 11 11 11 11 11 11 11 11 12 12 13 13 13 13 13 14 14 14 14 14 14 14 14 15 15 15 15 16 16 16 15 15 15 16 16 16 17 18 19 19 18 17 17 16 15 14 13 12 11 11 11 11
9 8 7 7 7 7 7 7 7 7 7 7 7 7 7 7 7 8 8 8 8 8 8 8 8 8 8 9 9 10 10 11 11 11 11 11 11 11 11 12 12 12 13 13 13 14 14 14 14 15 15 15 15 15 15 15 15 15 15 15 15 15 15 15 15 15 16 16 16 17 18 18 19 19 18 18 17 16 14 13 13 12 11 11 11
8 8 7 7 7 7 7 7 8 8 7 7 7 7 7 7 8 8 8 8 8 8 8 8 8 8 9 9 10 10 11 11 11 11 11 11 11 12 12 12 12 13 13 14 14 15 15 16 15 15 16 16 16 16 15 15 15 15 15 15 15 15 14 15 15 15 16 16 16 17 17 18 18 19 19 18 18 16 15 14 13 12 11 10 10
8 7 7 7 7 7 7 8 8 8 8 8 8 7 7 8 8 8 8 8 8 8 8 8 8 8 9 9 10 11 11 11 11 11 11 11 11 12 12 12 12 13 13 14 15 15 15 16 16 16 16 16 16 16 16 16 15 15 15 15 14 14 14 15 15 15 16 16 16 17 17 17 18 19 19 19 18 17 15 14 13 12 11 10 10
7 7 7 7 7 7 7 7 8 7 7 7 7 7 8 8 8 9 9 9 8 8 8 8 8 9 9 10 10 11 11 11 11 11 11 11 12 13 13 13 13 13 13 14 14 15 15 16 16 16 16 16 16 16 15 15 15 15 15 15 15 14 15 15 15 15 16 16 16 16 16 16 17 19 20 19 19 18 16 15 13 12 11 10 9
7 7 7 7 6 6 7 7 7 6 7 7 7 8 8 8 8 9 9 9 9 9 9 9 9 9 10 11 11 11 12 12 12 12 13 13 14 14 14 14 14 14 14 15 15 16 16 17 17 17 16 16 16 15 15 15 15 15 15 15 15 15 15 15 15 15 15 15 16 16 16 16 16 18 19 20 19 18 17 15 14 12 10 9 9
6 6 6 6 5 5 6 6 6 6 6 6 7 7 8 9 9 9 9 9 9 9 9 10 10 11 11 12 12 13 13 14 14 14 15 15 15 15 15 15 15 16 16 16 17 17 17 17 17 17 17 16 16 16 16 16 16 16 16 15 15 15 15 15 15 15 15 15 15 15 15 15 16 17 18 19 19 18 17 16 14 11 9 8 8
5 5 5 5 5 5 5 5 5 6 6 6 6 7 7 8 8 9 9 9 9 10 10 11 11 12 12 13 13 14 14 15 15 15 15 15 15 15 16 16 16 16 17 17 17 17 17 18 18 17 17 17 17 17 17 17 16 16 16 16 16 15 15 15 15 15 15 15 15 15 15 15 15 16 17 19 19 18 17 16 13 10 7 6 7
4 4 4 5 5 5 5 5 5 5 6 6 6 6 7 7 7 8 8 9 9 10 10 11 11 12 12 13 13 14 14 15 15 15 15 16 16 16 16 16 17 17 17 17 18 18 18 18 18 18 18 18 18 18 17 17 17 17 17 17 16 16 16 15 15 15 15 14 15 15 15 15 15 15 16 17 18 17 17 15 13 9 6 4 5
4 4 4 4 4 5 5 5 5 5 5 6 6 6 6 7 6 7 7 8 9 10 10 11 12 13 13 14 14 14 15 15 15 15 16 16 16 16 17 17 17 17 17 18 18 18 19 19 19 19 19 18 18 18 18 18 18 17 17 17 17 17 16 16 16 16 15 14 14 14 14 14 14 14 14 15 16 16 15 14 12 9 6 4 4
4 4 4 4 4 5 5 5 5 5 5 5 5 6 6 6 6 7 7 7 8 9 10 11 12 13 13 14 14 14 15 15 15 16 16 17 17 17 17 18 18 18 18 19 19 19 19 19 19 19 19 19 19 19 19 18 18 18 18 18 17 17 17 17 16 16 15 15 14 14 14 14 14 14 13 14 14 14 14 13 12 9 7 5 5
4 4 4 4 4 4 5 5 5 5 5 5 5 5 6 6 6 7 7 8 9 10 10 11 12 12 13 13 14 14 15 15 16 16 17 17 17 17 18 18 19 18 19 19 19 19 19 19 19 19 19 19 19 19 19 19 19 19 18 18 18 17 17 16 16 16 16 15 14 13 13 13 13 13 13 13 13 13 12 12 11 10 7 6 6
4 4 4 4 4 5 5 5 5 5 6 6 6 6 6 6 7 7 8 9 10 10 11 11 12 12 13 14 14 15 15 16 16 17 17 17 17 17 18 19 19 19 19 19 19 19 19 19 20 20 20 20 20 20 20 20 19 19 19 18 18 18 17 16 16 16 16 16 15 14 13 13 13 13 12 12 12 12 11 11 10 9 8 7 6
4 4 4 4 4 5 5 5 5 5 6 6 6 6 7 7 8 9 9 10 11 11 12 12 12 13 13 14 15 16 17 17 18 18 19 18 18 18 19 19 19 19 20 20 20 20 20 20 20 20 20 20 21 21 21 20 20 20 20 19 19 18 18 17 17 16 16 16 16 15 14 13 13 12 12 12 11 11 11 10 10 9 8 7 7
5 5 5 4 4 5 5 5 6 6 6 7 7 7 8 9 9 10 10 11 12 12 13 13 14 14 14 15 16 17 17 18 18 19 19 19 19 19 20 20 20 20 21 21 21 21 21 21 21 21 21 21 21 21 21 21 20 20 20 19 19 19 19 18 18 17 16 16 16 15 14 14 13 12 12 12 11 11 10 10 10 9 8 7 7
5 5 5 5 5 5 6 6 6 6 7 7 8 9 9 10 10 11 11 12 12 13 14 14 15 15 16 16 17 18 18 18 18 19 19 19 19 20 20 20 21 21 22 22 22 22 22 22 22 22 22 22 22 22 22 21 21 20 20 20 19 19 19 19 18 18 17 17 17 16 15 15 14 13 12 12 11 11 10 10 10 9 9 8 7
5 5 5 6 6 6 6 6 7 7 7 8 9 9 10 10 11 11 12 13 13 14 15 15 16 16 17 17 18 19 19 20 20 20 20 20 21 21 21 21 22 22 22 23 23 23 23 23 23 23 23 23 24 24 23 23 22 21 21 20 20 20 19 19 19 19 18 18 17 17 16 15 15 14 13 13 12 11 11 10 10 9 9 8 8
5 5 5 6 6 6 6 7 7 8 8 9 9 10 10 11 12 13 13 14 14 15 16 16 17 17 18 19 20 20 21 21 22 22 22 22 22 23 23 23 23 23 24 24 24 24 24 24 24 24 25 25 25 25 26 25 24 24 23 22 22 21 21 20 20 19 19 19 18 18 17 16 15 15 14 14 13 12 11 11 10 10 9 9 8
5 5 5 6 6 6 7 7 7 8 9 9 10 11 11 12 13 14 14 15 15 16 17 17 18 18 19 20 21 21 22 23 23 24 24 24 24 24 25 25 25 25 26 26 26 26 25 26 26 26 26 26 26 26 26 25 25 25 25 24 23 23 22 22 21 21 20 20 19 19 18 17 17 16 16 15 14 13 12 12 11 10 10 9 9
5 5 5 6 6 6 7 7 8 8 9 10 11 12 12 13 14 14 15 16 16 17 17 18 19 20 20 21 22 22 23 23 24 24 24 25 25 25 25 25 25 26 26 26 26 25 25 25 25 26 26 26 26 25 25 25 25 25 25 25 25 25 24 23 23 23 22 22 21 20 20 19 18 17 17 16 15 14 14 13 12 11 11 10 10
6 6 6 6 6 7 7 8 8 9 10 11 12 12 13 14 15 15 16 16 17 18 18 19 20 21 21 22 22 23 23 23 24 24 24 25 25 25 25 25 25 25 26 26 25 25 25 25 25 25 26 26 25 25 25 25 25 25 26 26 26 26 25 24 24 24 24 24 23 22 21 20 19 19 18 17 16 16 15 14 14 13 12 11 11
6 6 6 6 7 7 8 8 9 10 11 12 13 13 14 15 15 16 16 17 18 19 19 20 21 21 22 23 23 23 23 24 24 24 25 25 25 25 25 26 26 26 26 26 26 25 25 25 25 26 26 26 26 25 25 25 26 26 26 26 27 26 26 26 26 25 24 24 24 23 22 22 21 20 19 19 18 17 17 16 15 14 14 13 12
6 6 6 7 7 8 8 9 10 11 12 12 13 14 15 15 16 17 17 18 19 20 21 21 22 22 23 23 23 23 23 24 24 25 25 25 25 26 27 27 27 27 27 27 27 26 26 27 27 27 27 27 26 26 26 26 27 27 27 27 27 27 27 27 27 27 26 26 25 24 24 23 22 22 21 20 20 19 18 18 17 16 15 15 14
6 7 7 7 8 8 9 10 10 11 12 13 14 15 15 16 17 18 19 20 20 21 21 22 22 22 22 22 23 23 24 24 25 26 26 26 27 28 28 28 28 28 28 28 28 28 28 28 28 28 28 28 28 28 28 28 28 27 27 27 27 28 28 28 28 29 28 28 27 26 25 24 24 23 23 23 22 21 20 20 19 18 17 16 16
7 7 7 8 8 9 10 11 11 12 13 14 15 15 16 17 18 19 20 21 21 22 22 22 22 22 22 23 24 25 25 26 27 27 27 28 29 30 30 30 30 30 30 30 30 29 29 29 29 30 30 29 29 29 29 29 29 28 28 27 27 27 27 27 28 28 29 29 28 28 27 27 26 25 25 25 25 24 23 22 21 21 20 19 18
8 8 8 9 9 10 11 11 12 13 13 14 15 16 17 18 19 19 20 21 22 23 23 24 23 23 24 25 26 27 27 28 29 29 30 31 31 32 32 32 32 32 32 32 31 31 31 31 31 31 31 31 31 31 31 31 31 30 30 29 29 28 28 28 28 29 29 29 29 29 29 29 28 28 27 27 27 27 27 25 24 23 22 21 20
8 9 9 10 10 11 11 12 13 13 14 15 16 17 18 19 19 19 20 21 23 24 25 25 25 26 26 27 28 29 30 30 31 31 32 32 32 32 33 33 33 33 33 33 33 33 33 33 33 33 33 33 33 33 32 32 32 32 32 31 31 31 31 31 31 31 31 31 30 30 30 30 29 29 29 28 28 28 29 28 27 26 25 24 23
9 9 10 10 11 11 12 13 13 14 15 16 17 17 18 19 20 20 21 23 24 25 26 26 26 27 28 29 30 30 31 32 32 32 33 33 33 33 34 34 33 34 34 34 34 34 34 34 34 34 34 33 33 32 32 31 31 31 31 32 32 32 32 32 33 32 32 32 32 31 31 31 31 31 31 31 30 30 29 30 29 28 27 26 26
Wind_Direction
267 262 261 266 268 271 278 283 285 287 289 292 296 300 299 292 286 283 284 290 298 306 310 313 317 322 326 330 332 333 335 337 337 338 338 337 336 336 337 336 335 336 337 337 337 336 336 336 336 334 331 329 327 324 323 321 319 319 318 315 314 314 312 310 306 304 303 302 302 302 303 305 304 304 303 300 295 289 282 274 268 263 259 256 253
267 262 261 266 270 275 280 282 284 285 286 289 295 300 297 289 282 281 283 289 297 304 308 312 316 322 327 330 331 332 334 335 335 335 336 335 334 335 335 335 335 336 337 338 339 338 338 338 337 335 332 330 329 327 325 323 321 320 320 318 316 316 314 312 308 305 303 302 301 300 302 303 303 304 304 303 299 294 287 278 271 265 260 256 252
265 262 262 267 272 277 280 281 282 281 282 287 295 299 293 284 278 280 285 290 296 302 306 312 318 323 329 331 332 333 334 334 334 334 335 334 334 334 335 335 335 337 338 339 339 338 338 338 337 336 333 330 330 328 326 324 322 321 321 319 318 318 317 314 310 307 305 303 301 300 301 302 303 303 304 303 302 298 291 283 275 267 262 257 252
263 264 265 270 275 278 278 278 276 275 278 284 291 293 287 279 276 277 283 289 294 300 305 312 318 322 327 330 332 333 335 334 333 333 333 332 332 334 335 336 337 337 337 338 338 337 337 337 337 337 334 330 329 328 327 326 323 322 322 320 320 320 318 316 313 310 308 305 303 302 302 303 303 303 304 304 302 300 296 289 279 270 264 259 252
262 266 268 272 276 277 275 272 270 270 276 281 285 285 281 276 274 275 280 285 290 297 303 309 314 318 323 326 329 332 334 334 334 333 333 333 334 335 336 338 337 336 336 336 337 338 338 337 337 337 334 331 329 328 328 327 324 323 322 321 320 320 319 317 315 314 311 308 306 305 304 305 304 304 305 305 303 301 299 294 285 274 267 260 253
265 268 270 273 274 273 271 269 267 269 275 279 279 278 276 272 270 272 276 281 286 293 299 306 311 315 319 322 326 329 331 332 334 335 335 336 336 337 338 338 337 336 336 336 337 338 339 338 338 337 334 331 329 328 328 328 326 324 322 322 321 320 320 319 317 316 315 311 310 309 309 308 307 306 307 307 304 302 301 298 290 281 271 262 255
266 268 271 273 271 269 268 268 269 272 276 275 273 273 272 270 269 270 274 279 284 290 296 301 306 311 316 319 323 327 328 329 333 335 336 337 338 338 338 338 338 337 337 337 336 337 339 339 338 338 336 333 330 329 329 328 326 326 324 323 323 322 321 320 319 318 317 315 313 312 312 311 310 309 310 309 307 304 302 298 293 286 277 266 257
264 267 270 270 269 268 268 270 272 275 275 270 267 270 272 271 269 270 274 278 283 288 292 297 303 308 313 316 320 324 326 327 331 334 335 336 337 337 337 337 337 337 337 338 337 337 338 338 338 338 337 334 331 330 329 328 327 327 327 325 324 324 323 321 320 319 319 317 316 316 315 315 315 315 314 313 310 307 304 300 294 288 280 271 261
262 267 267 267 268 267 269 274 274 272 270 264 264 269 272 272 269 269 274 279 283 288 291 295 301 305 309 314 319 322 323 326 330 334 334 333 333 334 334 335 336 337 337 338 337 337 337 337 338 339 338 336 334 332 330 329 329 329 328 328 326 325 324 322 321 321 321 319 319 319 319 318 319 318 317 316 313 309 305 300 295 289 283 274 264
261 266 265 266 267 265 268 274 273 270 265 262 265 269 270 270 268 269 275 280 284 288 291 295 301 305 310 315 319 320 321 326 331 333 333 332 331 331 332 334 336 336 336 338 338 337 337 336 337 339 340 338 337 335 333 331 331 329 328 328 327 326 324 323 323 323 323 322 322 322 322 320 321 320 319 318 314 310 307 302 296 290 284 277 267
261 265 267 268 266 265 268 272 271 267 263 262 265 267 267 268 268 271 276 281 284 287 290 296 301 306 312 316 318 319 321 326 330 331 331 332 330 329 330 333 335 336 337 338 338 337 337 336 336 338 340 340 338 338 336 334 333 333 331 329 329 328 327 326 326 326 325 325 325 325 324 323 323 322 321 319 316 311 308 302 296 290 284 277 268
264 267 270 269 265 265 269 270 268 263 260 261 263 263 265 267 269 272 277 281 283 286 291 297 302 307 313 317 318 320 322 325 328 329 329 329 329 328 328 330 334 337 338 339 339 338 337 336 336 338 340 342 341 340 340 339 339 338 337 335 333 333 333 332 331 330 329 328 328 327 326 324 323 323 322 321 317 312 308 303 296 289 283 276 267
267 271 272 268 265 267 270 268 263 259 257 259 260 262 264 266 269 272 276 281 286 289 294 299 304 308 311 314 316 320 323 325 328 329 329 328 328 328 328 330 333 336 338 339 339 338 337 337 338 339 341 343 342 341 340 341 341 342 342 342 339 337 337 336 334 333 332 331 329 328 327 325 323 323 323 321 318 313 309 305 298 290 282 275 267
262 266 271 271 268 270 274 269 260 257 257 257 259 261 263 265 269 272 277 283 288 292 295 300 305 308 309 311 314 318 322 325 328 329 329 329 329 329 329 330 332 335 338 339 339 339 339 340 340 341 342 342 343 342 342 341 342 344 345 346 345 342 339 337 336 334 332 331 330 329 328 326 324 323 323 321 319 315 310 305 299 290 282 275 268
251 253 265 273 272 273 276 271 261 258 259 258 259 261 262 266 270 272 278 284 287 292 297 301 305 307 307 309 313 317 321 324 327 328 329 329 330 329 329 330 332 335 338 338 339 340 342 342 341 341 342 343 343 344 344 343 343 345 346 347 347 344 340 337 336 335 333 331 331 330 329 328 326 324 324 322 320 316 311 305 298 288 280 274 267
241 243 254 268 277 278 278 274 266 263 262 260 260 260 261 264 267 272 280 284 287 293 300 303 304 304 307 308 311 317 320 322 326 328 329 329 329 329 330 330 332 335 337 337 338 341 343 344 342 341 342 343 344 345 345 345 344 344 346 347 346 345 342 339 335 335 334 332 331 331 331 329 326 325 324 323 321 318 313 307 299 288 279 272 265
237 240 249 263 278 283 282 278 273 270 266 262 259 259 260 263 266 272 280 283 287 294 299 301 301 301 304 307 310 316 319 321 324 327 329 330 329 329 330 330 332 334 335 335 336 339 342 344 343 342 341 342 344 345 345 346 345 344 345 346 345 344 345 343 338 334 333 331 329 329 330 329 327 326 324 322 321 319 315 309 302 292 280 270 264
239 242 250 261 270 279 284 282 279 276 271 263 260 260 261 263 266 272 278 281 287 294 298 299 299 300 303 306 310 314 318 321 323 325 328 329 329 329 330 330 331 332 333 333 334 337 339 341 342 343 342 341 343 344 344 345 345 344 344 344 343 343 345 344 341 336 334 333 331 329 328 329 329 327 325 323 321 320 316 311 304 294 281 269 265
246 246 251 257 262 273 286 286 282 281 275 265 261 261 262 264 267 271 275 279 285 291 294 294 297 300 302 305 309 312 317 321 323 324 326 328 329 329 329 330 331 331 331 331 332 334 336 337 338 340 341 341 342 343 342 342 343 343 342 342 341 342 342 340 338 337 337 337 337 335 332 332 331 330 328 326 323 320 316 312 305 295 283 271 264
249 250 252 255 261 272 285 285 281 281 278 267 261 262 264 265 268 270 274 277 282 287 289 290 294 298 300 304 308 311 315 320 323 324 324 324 326 327 327 328 329 330 330 330 331 332 333 334 334 335 337 338 339 340 340 340 340 340 341 340 339 339 339 337 335 336 338 338 338 339 338 336 334 332 331 329 325 321 318 314 306 296 286 273 264
248 252 253 257 263 271 281 283 278 279 279 270 262 263 264 265 267 270 272 275 278 282 285 286 291 296 299 303 306 310 314 318 321 323 321 320 321 323 324 325 326 327 327 328 329 330 331 332 332 332 333 334 335 336 337 337 337 338 339 338 337 336 335 333 334 335 337 338 339 340 341 339 337 336 335 332 328 323 320 315 309 299 289 277 266
252 258 257 261 265 270 278 281 277 278 278 271 265 264 264 265 267 268 269 271 274 278 280 284 289 294 298 301 305 309 314 317 319 320 319 317 317 318 319 321 322 324 324 324 326 328 329 329 330 330 331 331 331 333 334 334 335 335 335 336 335 334 333 332 334 335 336 338 339 340 341 342 341 339 337 335 331 326 320 315 310 302 291 281 271
256 259 259 263 267 271 277 278 276 277 277 271 267 267 266 265 265 264 265 268 272 275 277 282 287 292 296 300 304 309 313 316 317 318 317 315 313 313 314 316 317 319 319 320 322 324 325 326 327 329 329 328 328 329 330 331 332 332 332 333 334 334 332 331 332 333 334 337 338 338 340 342 342 341 339 336 332 327 321 315 310 304 294 284 275
251 256 259 262 268 275 277 274 272 276 274 269 268 269 267 264 261 261 263 267 270 274 277 281 285 289 294 299 304 308 313 315 316 316 315 314 312 311 311 312 312 313 314 316 318 319 321 323 325 326 326 325 325 325 325 326 327 328 329 331 332 333 332 331 330 331 333 334 335 337 339 341 342 341 339 337 333 327 321 315 309 303 296 286 276
245 251 257 263 270 275 275 270 269 271 271 268 268 268 265 262 261 262 265 267 269 273 277 280 283 287 292 298 304 308 312 315 316 315 314 314 312 311 311 310 310 310 311 312 314 316 317 319 320 320 320 321 322 323 322 322 323 324 325 327 329 330 330 330 330 330 330 331 333 336 337 339 341 341 340 338 334 329 323 317 310 303 297 289 278
242 250 258 266 272 273 271 269 268 268 268 267 267 266 264 262 262 264 266 267 269 272 276 279 281 285 291 297 303 308 311 314 315 316 315 316 315 313 312 311 310 310 310 310 311 313 314 314 314 315 316 317 318 319 320 319 319 320 322 324 326 327 328 329 330 329 329 330 332 334 336 338 339 339 339 338 336 333 327 320 312 304 297 291 281
242 251 259 267 272 270 268 268 268 267 266 266 266 266 264 264 264 264 265 267 269 272 275 277 280 285 291 297 302 306 309 311 313 315 316 317 318 317 316 316 314 313 313 312 312 313 313 313 313 314 314 315 316 316 316 316 317 318 320 321 323 325 326 327 328 329 329 329 330 332 335 336 337 338 339 340 339 336 330 323 315 305 296 289 281
243 252 260 267 270 269 268 268 267 266 265 263 265 266 265 265 266 265 265 267 268 270 273 276 280 285 291 296 301 304 307 309 312 314 315 316 317 317 317 317 317 316 316 315 314 314 314 313 313 313 314 314 315 316 316 315 316 316 317 318 320 321 322 324 326 327 328 328 329 331 333 334 336 337 339 340 341 339 334 327 317 306 294 285 277
246 256 262 267 269 269 268 266 264 264 264 263 265 266 266 266 267 268 268 267 267 269 273 276 281 287 292 296 300 302 304 307 310 311 312 312 312 311 311 313 314 314 315 315 314 313 313 312 311 312 312 313 313 314 314 314 314 314 313 314 316 317 319 321 323 325 327 328 329 330 332 332 335 337 338 340 342 342 337 331 322 308 290 278 271
250 258 261 264 267 268 267 264 262 263 265 265 266 269 270 269 268 269 270 269 268 270 273 276 282 288 292 295 298 300 301 304 307 308 307 307 307 307 306 307 308 309 311 312 311 310 310 310 310 310 310 310 310 311 312 313 313 313 312 311 312 313 315 318 320 322 324 326 327 330 332 332 334 336 338 340 344 345 342 337 330 314 290 272 265
251 257 259 263 266 266 266 265 264 264 266 266 268 271 276 276 272 267 268 270 271 271 273 276 281 286 289 293 296 298 299 301 303 304 304 304 305 305 305 305 305 306 307 308 308 308 308 308 309 309 308 308 308 308 309 310 310 311 311 310 310 310 311 313 316 319 321 322 325 328 331 333 334 335 337 340 344 347 346 344 340 328 302 272 261
250 257 261 265 264 264 267 270 269 267 266 266 269 273 279 281 278 272 269 270 271 273 275 278 282 285 289 292 296 298 300 301 302 303 304 305 305 306 305 305 305 305 305 305 305 305 306 306 307 307 307 306 306 306 307 308 308 309 309 309 308 308 308 309 312 315 317 318 321 324 328 332 333 334 337 340 343 347 349 350 349 344 325 288 266
250 260 263 264 262 262 268 274 275 272 269 267 269 273 277 280 283 282 278 276 275 277 279 281 284 287 291 293 294 297 299 301 303 304 305 305 305 306 306 305 304 304 304 305 304 304 304 304 304 305 305 305 305 305 305 305 306 306 306 306 306 306 306 306 307 310 312 314 316 320 324 328 332 333 335 338 342 346 350 351 352 351 338 311 286
254 263 263 262 262 264 268 273 275 275 272 270 271 274 278 281 285 287 287 286 285 285 285 286 287 290 293 295 295 296 298 300 301 302 303 303 304 305 305 305 304 303 303 303 303 304 304 304 304 304 304 304 304 304 304 303 303 303 303 304 305 304 304 304 304 306 308 310 311 314 318 322 327 330 332 335 338 343 347 350 351 350 340 320 302
255 265 264 262 266 270 270 272 274 274 272 272 273 277 283 286 288 289 291 293 293 293 294 294 293 293 294 296 297 297 298 299 300 301 302 303 303 303 304 304 304 304 303 302 302 302 303 303 303 303 303 303 303 303 303 302 301 301 300 301 302 302 302 302 301 303 305 306 306 308 312 316 320 325 328 330 333 337 341 345 347 346 339 322 304
254 263 265 264 269 274 274 274 274 273 272 273 277 283 287 289 291 293 294 295 296 297 299 300 300 298 297 298 298 299 299 301 301 302 303 303 303 302 302 302 303 303 302 302 301 301 301 302 303 303 302 302 302 302 302 302 301 300 299 298 298 298 298 299 299 300 302 303 302 302 305 309 313 317 321 324 327 329 333 337 340 340 336 326 310
253 260 267 269 271 275 277 277 275 273 273 276 281 286 289 290 293 295 296 297 299 299 300 301 302 302 301 301 301 301 302 303 304 305 305 304 303 302 301 301 301 301 301 301 301 300 300 300 301 301 302 302 302 301 301 301 300 299 298 296 295 294 294 294 295 295 297 299 299 298 298 301 305 309 313 317 320 323 326 328 331 332 330 324 313
255 261 268 272 273 276 279 278 276 274 274 277 282 287 290 293 295 297 298 299 299 300 301 301 302 302 302 303 304 304 304 305 307 307 306 305 303 302 301 300 300 300 300 300 299 299 298 298 299 299 299 300 301 301 301 300 299 298 297 296 294 292 291 290 291 291 291 293 295 294 293 295 298 301 304 307 311 315 318 320 323 325 325 320 312
262 265 268 270 273 278 280 280 277 276 276 280 285 288 292 294 296 297 298 299 299 300 301 301 301 302 303 304 306 307 307 307 308 307 306 306 305 303 301 300 300 300 300 300 300 299 298 298 297 298 298 297 297 298 298 298 298 298 297 296 294 291 289 288 288 288 288 289 290 290 289 290 292 294 297 299 302 306 309 311 312 315 317 316 311
270 271 271 269 271 277 281 281 279 279 279 283 288 291 293 295 296 296 298 299 299 300 301 301 302 303 304 305 307 308 308 308 307 307 306 306 305 303 302 301 300 300 299 300 300 299 298 298 298 298 298 297 297 297 296 295 296 296 297 296 294 292 289 286 284 284 285 285 285 285 284 284 286 288 289 292 294 296 299 303 304 305 306 308 307
278 280 277 273 272 275 279 279 279 281 283 286 290 292 293 294 296 297 298 299 300 300 301 302 303 304 305 305 306 307 307 307 307 306 306 305 305 303 302 301 300 300 300 299 299 298 297 297 297 297 297 297 296 296 294 293 292 292 292 293 293 292 290 287 284 282 282 282 282 281 280 279 280 282 283 284 286 288 290 292 295 296 297 298 298
283 284 282 279 276 276 279 280 282 284 286 288 290 292 293 295 297 297 298 299 300 301 302 303 304 305 305 305 306 306 306 307 306 306 305 305 304 303 302 301 301 301 300 300 299 299 297 296 295 296 297 296 296 295 294 292 290 290 289 289 290 289 289 288 285 282 281 281 281 279 277 275 274 275 277 278 280 281 282 283 284 286 288 289 289
284 285 285 285 281 279 281 284 287 287 288 290 292 293 295 296 297 297 298 299 301 302 303 304 305 306 307 306 306 306 306 306 305 305 304 304 303 303 302 302 301 301 301 300 300 299 298 296 295 296 297 297 296 295 293 292 291 290 289 288 287 286 286 285 283 281 281 281 281 279 277 274 271 270 271 272 274 275 276 276 276 277 279 281 282
283 284 285 286 285 284 285 287 288 290 291 292 293 295 295 296 297 298 299 301 302 302 304 305 306 307 307 307 307 306 306 306 306 305 305 304 304 303 303 302 302 302 302 301 300 300 299 297 297 297 298 298 297 295 294 293 292 291 289 288 287 285 283 282 282 281 280 279 279 278 276 274 271 268 267 267 268 269 271 271 270 269 270 273 274
283 284 284 284 285 286 287 288 289 291 293 295 296 297 298 298 299 300 301 302 303 304 305 306 306 307 307 308 308 308 307 307 307 307 307 306 306 305 304 304 303 302 302 301 301 300 299 298 297 297 298 299 298 296 295 295 294 292 290 288 286 284 282 281 281 281 279 278 277 276 274 272 270 268 267 266 264 264 265 266 265 263 263 264 266
284 285 285 286 288 288 289 291 292 294 296 298 299 300 302 302 303 303 303 304 304 305 305 306 307 307 308 308 308 308 308 308 308 309 308 308 307 306 305 305 304 303 302 301 301 300 299 299 298 297 297 298 297 296 295 295 295 293 291 289 287 284 282 281 280 278 277 277 277 275 272 269 268 267 265 265 264 262 260 261 260 260 260 259 259
287 288 288 289 290 291 293 295 296 297 298 300 301 302 303 304 304 305 305 305 305 306 306 306 307 307 308 308 308 308 308 308 309 309 309 309 309 308 307 306 306 305 304 303 301 300 299 299 298 297 297 296 296 295 294 294 294 294 292 290 289 287 285 282 279 277 276 276 275 273 270 267 266 265 263 263 263 261 259 258 257 257 257 256 255
289 291 291 291 292 293 295 297 298 298 299 300 301 302 303 304 305 306 307 308 307 307 306 306 306 308 309 309 309 309 309 308 309 309 308 308 308 308 307 306 305 305 304 304 302 301 300 300 300 299 298 297 296 295 294 294 293 292 292 291 290 289 287 283 280 277 276 276 274 272 268 266 264 263 262 260 260 259 258 257 256 254 254 253 252
292 292 293 292 293 295 297 299 300 300 301 302 302 303 305 306 307 308 309 309 310 310 310 308 308 309 310 310 310 309 309 308 308 308 308 307 307 307 306 305 304 304 303 303 301 301 300 300 300 299 298 297 296 295 294 293 292 290 290 290 289 288 287 285 282 280 278 277 274 271 268 265 264 263 261 259 257 257 257 256 255 252 251 250 248
291 292 294 294 294 296 298 299 300 302 303 304 306 307 308 309 309 310 310 311 311 311 311 310 309 310 311 312 311 310 310 309 309 309 309 308 308 308 307 306 305 304 303 302 301 301 301 300 300 299 297 297 296 295 294 293 292 291 290 289 288 287 285 285 283 281 279 277 274 271 267 265 263 263 261 259 257 256 255 254 254 252 250 248 246
291 292 294 295 296 298 299 300 302 304 305 306 307 308 309 310 311 311 311 311 311 311 311 311 312 312 313 312 312 311 311 310 310 310 309 309 308 308 307 306 305 304 303 302 301 301 301 300 300 299 298 297 296 295 294 294 294 293 293 292 291 289 287 286 284 282 279 276 273 270 267 265 263 262 261 260 258 256 254 253 253 252 251 249 246